| time (UTC) | temp F | wind direction | speed MPH | gust MPH | rain 1hr in | rain 24hr in | rain mn in | humidity % | barometer mb |
| 20260506044004 | 49 | 212 | 1.0 | 2.0 | 0.00 | 0.23 | 0.13 | 94 | 1016.2 |
| 20260506043505 | 48 | 212 | 0.0 | 0.0 | 0.00 | 0.23 | 0.13 | 94 | 1016.2 |
| 20260506043004 | 48 | 212 | 0.0 | 0.0 | 0.00 | 0.23 | 0.13 | 94 | 1016.2 |
| 20260506042504 | 49 | 212 | 0.0 | 0.0 | 0.00 | 0.23 | 0.13 | 94 | 1016.2 |
| 20260506042004 | 49 | 212 | 0.0 | 1.0 | 0.00 | 0.24 | 0.13 | 93 | 1016.1 |
| 20260506041504 | 49 | 212 | 1.0 | 2.0 | 0.00 | 0.24 | 0.13 | 93 | 1016.0 |
| 20260506041004 | 49 | 212 | 0.0 | 1.0 | 0.00 | 0.24 | 0.13 | 93 | 1016.0 |
| 20260506040504 | 49 | 212 | 1.0 | 2.0 | 0.00 | 0.24 | 0.13 | 93 | 1016.0 |
| 20260506040004 | 49 | 212 | 0.0 | 0.0 | 0.00 | 0.24 | 0.13 | 93 | 1015.9 |
| 20260506035503 | 49 | 212 | 0.0 | 0.0 | 0.00 | 0.24 | 0.13 | 93 | 1015.9 |
| 20260506035004 | 49 | 212 | 0.0 | 0.0 | 0.00 | 0.24 | 0.13 | 93 | 1015.8 |
| 20260506034504 | 49 | 212 | 0.0 | 1.0 | 0.00 | 0.24 | 0.13 | 92 | 1015.5 |
| 20260506034004 | 49 | 212 | 0.0 | 0.0 | 0.00 | 0.24 | 0.13 | 92 | 1015.5 |
| 20260506033504 | 49 | 212 | 0.0 | 0.0 | 0.00 | 0.24 | 0.13 | 92 | 1015.3 |
| 20260506033005 | 50 | 212 | 0.0 | 0.0 | 0.00 | 0.24 | 0.13 | 92 | 1015.3 |
| 20260506032504 | 50 | 212 | 0.0 | 1.0 | 0.00 | 0.24 | 0.13 | 92 | 1015.3 |
| 20260506032004 | 50 | 212 | 0.0 | 0.0 | 0.00 | 0.24 | 0.13 | 92 | 1015.2 |
| 20260506031504 | 50 | 212 | 1.0 | 2.0 | 0.00 | 0.24 | 0.13 | 92 | 1015.3 |
| 20260506031004 | 50 | 212 | 0.0 | 2.0 | 0.00 | 0.24 | 0.13 | 92 | 1015.2 |
| 20260506030504 | 50 | 212 | 1.0 | 1.0 | 0.00 | 0.24 | 0.13 | 92 | 1015.1 |
| 20260506030004 | 51 | 212 | 0.0 | 1.0 | 0.00 | 0.24 | 0.13 | 92 | 1015.2 |
| 20260506025504 | 51 | 212 | 1.0 | 2.0 | 0.00 | 0.24 | 0.13 | 92 | 1015.2 |
| 20260506025004 | 51 | 212 | 1.0 | 2.0 | 0.00 | 0.24 | 0.13 | 92 | 1015.4 |
| 20260506024504 | 51 | 212 | 0.0 | 0.0 | 0.00 | 0.24 | 0.13 | 92 | 1015.3 |
| 20260506024004 | 51 | 212 | 0.0 | 0.0 | 0.00 | 0.24 | 0.13 | 92 | 1015.2 |
| 20260506023004 | 51 | 212 | 0.0 | 0.0 | 0.00 | 0.24 | 0.13 | 92 | 1015.3 |
| 20260506022504 | 51 | 212 | 0.0 | 0.0 | 0.00 | 0.24 | 0.13 | 92 | 1015.3 |
| 20260506022004 | 51 | 212 | 0.0 | 0.0 | 0.00 | 0.24 | 0.13 | 92 | 1015.5 |
| 20260506021504 | 51 | 212 | 0.0 | 0.0 | 0.00 | 0.24 | 0.13 | 92 | 1015.4 |
| 20260506021004 | 51 | 212 | 0.0 | 0.0 | 0.00 | 0.24 | 0.13 | 92 | 1015.1 |
| 20260506020504 | 51 | 212 | 0.0 | 0.0 | 0.00 | 0.24 | 0.13 | 92 | 1015.5 |
| 20260506020004 | 51 | 213 | 0.0 | 0.0 | 0.00 | 0.24 | 0.13 | 92 | 1015.2 |
| 20260506014005 | 51 | 212 | 0.0 | 0.0 | 0.00 | 0.24 | 0.13 | 92 | 1015.0 |
| 20260506013504 | 51 | 212 | 0.0 | 0.0 | 0.00 | 0.24 | 0.13 | 92 | 1015.1 |
| 20260506013003 | 51 | 212 | 0.0 | 0.0 | 0.00 | 0.24 | 0.13 | 92 | 1015.1 |
| 20260506012504 | 51 | 212 | 0.0 | 0.0 | 0.00 | 0.24 | 0.13 | 92 | 1015.1 |
| 20260506012006 | 51 | 212 | 0.0 | 0.0 | 0.00 | 0.24 | 0.13 | 92 | 1015.1 |
| 20260506011006 | 51 | 212 | 0.0 | 0.0 | 0.00 | 0.24 | 0.13 | 92 | 1015.0 |
| 20260506010506 | 51 | 212 | 0.0 | 0.0 | 0.00 | 0.24 | 0.13 | 92 | 1015.1 |
| 20260506010006 | 51 | 212 | 0.0 | 0.0 | 0.00 | 0.24 | 0.13 | 92 | 1015.0 |
| 20260506005506 | 51 | 212 | 0.0 | 0.0 | 0.00 | 0.24 | 0.13 | 93 | 1015.0 |
| 20260506005006 | 51 | 212 | 0.0 | 0.0 | 0.00 | 0.24 | 0.13 | 92 | 1015.0 |
| 20260506004506 | 50 | 212 | 0.0 | 1.0 | 0.00 | 0.24 | 0.13 | 92 | 1015.0 |
| 20260506004006 | 50 | 212 | 1.0 | 2.0 | 0.00 | 0.24 | 0.13 | 91 | 1015.0 |
| 20260506003006 | 51 | 213 | 1.0 | 3.0 | 0.00 | 0.24 | 0.13 | 90 | 1014.9 |
| 20260506002506 | 51 | 213 | 1.0 | 3.0 | 0.00 | 0.24 | 0.13 | 90 | 1014.9 |
| 20260506002006 | 51 | 213 | 0.0 | 2.0 | 0.00 | 0.24 | 0.13 | 90 | 1014.8 |
| 20260506001506 | 51 | 213 | 0.0 | 2.0 | 0.00 | 0.24 | 0.13 | 90 | 1014.8 |
| 20260506001005 | 51 | 213 | 1.0 | 2.0 | 0.00 | 0.24 | 0.13 | 89 | 1014.7 |
| 20260506000505 | 51 | 213 | 0.0 | 2.0 | 0.00 | 0.24 | 0.13 | 90 | 1014.8 |
| 20260506000005 | 51 | 213 | 0.0 | 1.0 | 0.00 | 0.24 | 0.13 | 91 | 1014.8 |
| 20260505235506 | 51 | 213 | 1.0 | 2.0 | 0.00 | 0.24 | 0.13 | 90 | 1014.6 |
| 20260505235006 | 51 | 213 | 1.0 | 3.0 | 0.00 | 0.24 | 0.13 | 90 | 1014.6 |
| 20260505234506 | 51 | 213 | 1.0 | 2.0 | 0.00 | 0.24 | 0.13 | 90 | 1014.6 |
| 20260505234006 | 51 | 213 | 0.0 | 1.0 | 0.00 | 0.24 | 0.13 | 91 | 1014.6 |
| 20260505233505 | 51 | 213 | 0.0 | 2.0 | 0.00 | 0.24 | 0.13 | 92 | 1014.5 |
| 20260505232506 | 50 | 213 | 0.0 | 0.0 | 0.00 | 0.24 | 0.13 | 92 | 1014.6 |
| 20260505232006 | 50 | 213 | 0.0 | 1.0 | 0.00 | 0.24 | 0.13 | 92 | 1014.4 |
| 20260505231506 | 50 | 213 | 0.0 | 2.0 | 0.00 | 0.24 | 0.13 | 92 | 1014.5 |
| 20260505231006 | 50 | 213 | 0.0 | 3.0 | 0.00 | 0.24 | 0.13 | 92 | 1014.5 |
| 20260505230505 | 50 | 213 | 2.0 | 3.0 | 0.00 | 0.24 | 0.13 | 91 | 1014.5 |
| 20260505230006 | 50 | 213 | 2.0 | 3.0 | 0.00 | 0.24 | 0.13 | 91 | 1014.5 |
| 20260505225505 | 50 | 212 | 1.0 | 3.0 | 0.00 | 0.24 | 0.13 | 92 | 1014.4 |
| 20260505225006 | 50 | 212 | 0.0 | 2.0 | 0.00 | 0.24 | 0.13 | 92 | 1014.4 |
| 20260505224505 | 50 | 212 | 1.0 | 3.0 | 0.00 | 0.24 | 0.13 | 91 | 1014.4 |
| 20260505223506 | 50 | 212 | 2.0 | 3.0 | 0.00 | 0.24 | 0.13 | 90 | 1014.5 |
| 20260505223007 | 50 | 212 | 1.0 | 3.0 | 0.00 | 0.24 | 0.13 | 90 | 1014.6 |
| 20260505222506 | 50 | 212 | 1.0 | 3.0 | 0.00 | 0.24 | 0.13 | 89 | 1014.6 |
| 20260505222006 | 51 | 212 | 2.0 | 3.0 | 0.00 | 0.25 | 0.13 | 88 | 1014.5 |
| 20260505221006 | 51 | 212 | 0.0 | 2.0 | 0.00 | 0.25 | 0.13 | 89 | 1014.7 |
| 20260505220505 | 51 | 212 | 0.0 | 2.0 | 0.00 | 0.25 | 0.13 | 89 | 1014.7 |
| 20260505215005 | 51 | 212 | 0.0 | 1.0 | 0.00 | 0.26 | 0.13 | 90 | 1014.7 |
| 20260505214506 | 50 | 212 | 0.0 | 2.0 | 0.00 | 0.26 | 0.13 | 90 | 1014.7 |
| 20260505214006 | 50 | 212 | 1.0 | 2.0 | 0.00 | 0.26 | 0.13 | 90 | 1014.7 |
| 20260505212507 | 50 | 212 | 1.0 | 2.0 | 0.00 | 0.29 | 0.13 | 89 | 1014.7 |
| 20260505212006 | 50 | 212 | 1.0 | 3.0 | 0.00 | 0.31 | 0.13 | 88 | 1014.8 |
| 20260505211506 | 50 | 212 | 2.0 | 3.0 | 0.00 | 0.33 | 0.13 | 89 | 1014.7 |
| 20260505210505 | 50 | 212 | 2.0 | 3.0 | 0.00 | 0.35 | 0.13 | 89 | 1014.8 |
| 20260505205506 | 50 | 212 | 1.0 | 3.0 | 0.00 | 0.36 | 0.13 | 89 | 1014.6 |
| 20260505205005 | 50 | 212 | 2.0 | 3.0 | 0.00 | 0.37 | 0.13 | 89 | 1014.6 |
| 20260505204506 | 50 | 211 | 1.0 | 3.0 | 0.00 | 0.38 | 0.13 | 89 | 1014.6 |
| 20260505203506 | 50 | 210 | 2.0 | 3.0 | 0.00 | 0.38 | 0.13 | 88 | 1014.6 |
| 20260505203006 | 50 | 210 | 0.0 | 2.0 | 0.00 | 0.38 | 0.13 | 89 | 1014.5 |
| 20260505202505 | 49 | 210 | 0.0 | 2.0 | 0.00 | 0.38 | 0.13 | 89 | 1014.5 |
| 20260505201506 | 50 | 210 | 1.0 | 3.0 | 0.00 | 0.38 | 0.13 | 89 | 1014.5 |
| 20260505201005 | 49 | 210 | 2.0 | 3.0 | 0.00 | 0.38 | 0.13 | 90 | 1014.5 |
| 20260505200506 | 49 | 211 | 1.0 | 3.0 | 0.00 | 0.38 | 0.13 | 89 | 1014.6 |
| 20260505200006 | 49 | 211 | 2.0 | 3.0 | 0.00 | 0.38 | 0.13 | 89 | 1014.6 |
| 20260505195506 | 49 | 199 | 1.0 | 3.0 | 0.00 | 0.38 | 0.13 | 89 | 1014.7 |
| 20260505195007 | 49 | 199 | 2.0 | 5.0 | 0.00 | 0.38 | 0.13 | 89 | 1014.5 |
| 20260505194505 | 49 | 199 | 3.0 | 7.0 | 0.00 | 0.38 | 0.13 | 89 | 1014.6 |
| 20260505194005 | 49 | 175 | 3.0 | 6.0 | 0.00 | 0.38 | 0.13 | 89 | 1014.5 |
| 20260505193006 | 49 | 210 | 2.0 | 7.0 | 0.00 | 0.38 | 0.13 | 89 | 1014.4 |
| 20260505192505 | 49 | 175 | 5.0 | 7.0 | 0.00 | 0.38 | 0.13 | 88 | 1014.3 |
| 20260505192006 | 49 | 178 | 2.0 | 5.0 | 0.00 | 0.38 | 0.13 | 88 | 1014.3 |
| 20260505191506 | 49 | 260 | 2.0 | 7.0 | 0.00 | 0.38 | 0.13 | 89 | 1014.3 |
| 20260505191006 | 49 | 189 | 2.0 | 3.0 | 0.00 | 0.38 | 0.13 | 89 | 1014.3 |
| 20260505190006 | 49 | 189 | 2.0 | 5.0 | 0.00 | 0.38 | 0.13 | 90 | 1014.2 |
| 20260505185505 | 48 | 189 | 0.0 | 3.0 | 0.00 | 0.38 | 0.13 | 91 | 1014.2 |
| 20260505185005 | 48 | 189 | 2.0 | 5.0 | 0.00 | 0.38 | 0.13 | 91 | 1014.2 |
| 20260505184506 | 48 | 273 | 4.0 | 8.0 | 0.00 | 0.38 | 0.13 | 90 | 1014.3 |
| 20260505184005 | 49 | 231 | 3.0 | 8.0 | 0.00 | 0.38 | 0.13 | 90 | 1014.2 |
| 20260505183505 | 49 | 204 | 4.0 | 7.0 | 0.00 | 0.38 | 0.13 | 90 | 1014.2 |
| 20260505183006 | 48 | 213 | 3.0 | 5.0 | 0.00 | 0.38 | 0.13 | 90 | 1014.2 |
| 20260505182506 | 48 | 199 | 5.0 | 7.0 | 0.00 | 0.38 | 0.13 | 91 | 1014.2 |
| 20260505181506 | 49 | 225 | 2.0 | 3.0 | 0.00 | 0.38 | 0.13 | 91 | 1014.1 |
| 20260505181005 | 49 | 232 | 2.0 | 8.0 | 0.00 | 0.38 | 0.13 | 90 | 1014.0 |
| 20260505180006 | 48 | 265 | 5.0 | 7.0 | 0.00 | 0.38 | 0.13 | 89 | 1013.8 |
| 20260505175005 | 49 | 331 | 3.0 | 8.0 | 0.00 | 0.39 | 0.13 | 89 | 1013.7 |
| 20260505174505 | 49 | 343 | 3.0 | 6.0 | 0.00 | 0.39 | 0.13 | 90 | 1013.7 |
| 20260505174006 | 49 | 274 | 2.0 | 9.0 | 0.00 | 0.39 | 0.13 | 90 | 1013.6 |
| 20260505172505 | 49 | 291 | 2.0 | 3.0 | 0.00 | 0.40 | 0.13 | 88 | 1013.5 |
| 20260505172006 | 50 | 278 | 3.0 | 7.0 | 0.00 | 0.40 | 0.13 | 89 | 1013.4 |
| 20260505171506 | 50 | 269 | 5.0 | 8.0 | 0.00 | 0.40 | 0.13 | 89 | 1013.4 |
| 20260505171005 | 49 | 252 | 1.0 | 6.0 | 0.00 | 0.40 | 0.13 | 89 | 1013.5 |
| 20260505170506 | 49 | 252 | 2.0 | 5.0 | 0.00 | 0.41 | 0.13 | 89 | 1013.4 |
| 20260505170005 | 49 | 186 | 2.0 | 5.0 | 0.00 | 0.42 | 0.13 | 91 | 1013.4 |
| 20260505165505 | 49 | 269 | 2.0 | 3.0 | 0.00 | 0.43 | 0.13 | 90 | 1013.4 |
| 20260505165006 | 49 | 266 | 3.0 | 6.0 | 0.00 | 0.45 | 0.13 | 90 | 1013.3 |
| 20260505162506 | 49 | 232 | 0.0 | 3.0 | 0.00 | 0.47 | 0.13 | 90 | 1013.2 |
| 20260505162005 | 49 | 231 | 3.0 | 5.0 | 0.00 | 0.47 | 0.13 | 92 | 1013.3 |
| 20260505161506 | 49 | 148 | 0.0 | 1.0 | 0.00 | 0.47 | 0.13 | 93 | 1013.2 |
| 20260505161006 | 48 | 148 | 1.0 | 3.0 | 0.00 | 0.47 | 0.13 | 94 | 1013.2 |
| 20260505153005 | 46 | 158 | 0.0 | 0.0 | 0.00 | 0.47 | 0.13 | 95 | 1013.1 |
| 20260505152505 | 46 | 158 | 0.0 | 0.0 | 0.00 | 0.47 | 0.13 | 95 | 1013.2 |
| 20260505152006 | 46 | 158 | 0.0 | 0.0 | 0.00 | 0.47 | 0.13 | 95 | 1013.3 |
| 20260505151505 | 46 | 158 | 0.0 | 0.0 | 0.00 | 0.47 | 0.13 | 95 | 1013.4 |
| 20260505151005 | 46 | 158 | 0.0 | 0.0 | 0.00 | 0.47 | 0.13 | 95 | 1013.4 |
| 20260505150505 | 46 | 158 | 0.0 | 0.0 | 0.00 | 0.47 | 0.13 | 95 | 1013.3 |
| 20260505140505 | 45 | 123 | 0.0 | 0.0 | 0.00 | 0.47 | 0.13 | 95 | 1012.5 |
| 20260505125006 | 45 | 123 | 0.0 | 0.0 | 0.02 | 0.47 | 0.13 | 95 | 1012.7 |
| 20260505124506 | 45 | 123 | 0.0 | 0.0 | 0.02 | 0.47 | 0.13 | 95 | 1012.6 |
| 20260505124006 | 45 | 123 | 0.0 | 0.0 | 0.01 | 0.46 | 0.12 | 95 | 1012.5 |
| 20260505123505 | 45 | 123 | 0.0 | 0.0 | 0.01 | 0.46 | 0.12 | 95 | 1012.4 |
| 20260505123005 | 45 | 123 | 0.0 | 0.0 | 0.02 | 0.46 | 0.12 | 95 | 1012.6 |
| 20260505122505 | 45 | 123 | 0.0 | 0.0 | 0.02 | 0.46 | 0.12 | 95 | 1012.6 |
| 20260505121506 | 45 | 123 | 0.0 | 0.0 | 0.01 | 0.45 | 0.11 | 95 | 1012.6 |
| 20260505121005 | 45 | 123 | 0.0 | 0.0 | 0.02 | 0.45 | 0.11 | 95 | 1012.4 |
| 20260505120007 | 45 | 123 | 0.0 | 0.0 | 0.02 | 0.45 | 0.11 | 95 | 1012.3 |
| 20260505115506 | 45 | 123 | 0.0 | 0.0 | 0.02 | 0.45 | 0.11 | 95 | 1012.4 |
| 20260505115005 | 45 | 123 | 0.0 | 0.0 | 0.03 | 0.45 | 0.11 | 95 | 1012.4 |
| 20260505114006 | 45 | 123 | 0.0 | 0.0 | 0.05 | 0.45 | 0.11 | 95 | 1012.3 |
| 20260505113505 | 45 | 123 | 0.0 | 0.0 | 0.06 | 0.45 | 0.11 | 95 | 1012.4 |
| 20260505113006 | 45 | 123 | 0.0 | 0.0 | 0.06 | 0.44 | 0.10 | 95 | 1012.3 |
| 20260505112505 | 45 | 123 | 0.0 | 0.0 | 0.06 | 0.44 | 0.10 | 95 | 1012.3 |
| 20260505112005 | 45 | 123 | 0.0 | 0.0 | 0.07 | 0.44 | 0.10 | 95 | 1012.3 |
| 20260505111517 | 45 | 123 | 0.0 | 0.0 | 0.07 | 0.44 | 0.10 | 95 | 1012.5 |
| 20260505111006 | 45 | 123 | 0.0 | 0.0 | 0.06 | 0.43 | 0.09 | 95 | 1012.6 |
| 20260505110506 | 45 | 123 | 0.0 | 0.0 | 0.06 | 0.43 | 0.09 | 95 | 1012.8 |
| 20260505101506 | 45 | 123 | 0.0 | 0.0 | 0.00 | 0.37 | 0.03 | 95 | 1012.8 |
| 20260505101005 | 45 | 123 | 0.0 | 0.0 | 0.00 | 0.37 | 0.03 | 94 | 1012.8 |
| 20260505100505 | 45 | 123 | 0.0 | 0.0 | 0.00 | 0.37 | 0.03 | 95 | 1012.9 |
| 20260505100005 | 45 | 123 | 0.0 | 0.0 | 0.00 | 0.37 | 0.03 | 95 | 1013.1 |
| 20260505095505 | 45 | 123 | 0.0 | 0.0 | 0.00 | 0.37 | 0.03 | 95 | 1013.0 |
| 20260505095005 | 45 | 123 | 0.0 | 0.0 | 0.00 | 0.37 | 0.03 | 95 | 1012.9 |
| 20260505094505 | 45 | 123 | 0.0 | 0.0 | 0.00 | 0.37 | 0.03 | 95 | 1012.8 |
| 20260505094006 | 45 | 123 | 0.0 | 0.0 | 0.00 | 0.37 | 0.03 | 95 | 1012.9 |
| 20260505093505 | 45 | 123 | 0.0 | 0.0 | 0.00 | 0.37 | 0.03 | 95 | 1013.0 |
| 20260505093005 | 45 | 123 | 0.0 | 0.0 | 0.00 | 0.37 | 0.03 | 95 | 1013.0 |
| 20260505092505 | 45 | 123 | 0.0 | 0.0 | 0.00 | 0.37 | 0.03 | 94 | 1013.1 |
| 20260505092005 | 45 | 123 | 0.0 | 0.0 | 0.00 | 0.37 | 0.03 | 94 | 1013.0 |
| 20260505091005 | 45 | 123 | 0.0 | 0.0 | 0.00 | 0.37 | 0.03 | 94 | 1012.9 |
| 20260505090505 | 45 | 123 | 0.0 | 0.0 | 0.00 | 0.37 | 0.03 | 94 | 1012.9 |
| 20260505090005 | 45 | 123 | 0.0 | 0.0 | 0.00 | 0.37 | 0.03 | 94 | 1013.1 |
| 20260505085505 | 45 | 123 | 0.0 | 0.0 | 0.00 | 0.37 | 0.03 | 94 | 1013.1 |
| 20260505085006 | 45 | 123 | 0.0 | 0.0 | 0.01 | 0.37 | 0.03 | 94 | 1013.3 |
| 20260505084505 | 46 | 123 | 0.0 | 0.0 | 0.01 | 0.37 | 0.03 | 95 | 1013.4 |
| 20260505084005 | 45 | 123 | 0.0 | 0.0 | 0.01 | 0.37 | 0.03 | 95 | 1013.5 |
| 20260505083505 | 46 | 123 | 0.0 | 0.0 | 0.01 | 0.37 | 0.03 | 95 | 1013.5 |
| 20260505083006 | 45 | 123 | 0.0 | 0.0 | 0.01 | 0.37 | 0.03 | 94 | 1013.6 |
| 20260505082512 | 45 | 123 | 0.0 | 0.0 | 0.01 | 0.37 | 0.03 | 94 | 1013.5 |
| 20260505082005 | 45 | 123 | 0.0 | 0.0 | 0.02 | 0.37 | 0.03 | 94 | 1013.3 |
| 20260505081005 | 45 | 123 | 0.0 | 0.0 | 0.02 | 0.37 | 0.03 | 94 | 1013.5 |
| 20260505080005 | 45 | 123 | 0.0 | 0.0 | 0.03 | 0.37 | 0.03 | 94 | 1013.5 |
| 20260505075505 | 45 | 123 | 0.0 | 0.0 | 0.03 | 0.37 | 0.03 | 94 | 1013.4 |
| 20260505075005 | 45 | 123 | 0.0 | 0.0 | 0.03 | 0.36 | 0.02 | 94 | 1013.2 |
| 20260505074005 | 45 | 123 | 0.0 | 0.0 | 0.07 | 0.36 | 0.02 | 94 | 1013.3 |
| 20260505073506 | 45 | 123 | 0.0 | 0.0 | 0.08 | 0.36 | 0.02 | 94 | 1013.3 |
| 20260505073005 | 45 | 123 | 0.0 | 0.0 | 0.09 | 0.36 | 0.02 | 94 | 1013.4 |
| 20260505072505 | 45 | 123 | 0.0 | 0.0 | 0.10 | 0.36 | 0.02 | 94 | 1013.3 |
| 20260505072006 | 45 | 123 | 0.0 | 0.0 | 0.09 | 0.35 | 0.01 | 94 | 1013.2 |
| 20260505071505 | 45 | 123 | 0.0 | 0.0 | 0.09 | 0.35 | 0.01 | 94 | 1013.2 |
| 20260505071007 | 45 | 123 | 0.0 | 0.0 | 0.10 | 0.35 | 0.01 | 94 | 1013.3 |
| 20260505070506 | 45 | 123 | 0.0 | 0.0 | 0.10 | 0.35 | 0.01 | 94 | 1013.3 |
| 20260505070006 | 45 | 123 | 0.0 | 0.0 | 0.09 | 0.34 | 0.00 | 94 | 1013.3 |
| 20260505065506 | 45 | 123 | 0.0 | 0.0 | 0.09 | 0.34 | 0.34 | 94 | 1013.3 |
| 20260505065005 | 45 | 123 | 0.0 | 0.0 | 0.08 | 0.33 | 0.33 | 94 | 1013.3 |
| 20260505064505 | 46 | 123 | 0.0 | 0.0 | 0.08 | 0.32 | 0.32 | 94 | 1013.4 |
| 20260505064005 | 46 | 123 | 0.0 | 0.0 | 0.06 | 0.30 | 0.30 | 94 | 1013.4 |
| 20260505063505 | 46 | 123 | 0.0 | 0.0 | 0.04 | 0.28 | 0.28 | 94 | 1013.6 |
| 20260505063005 | 46 | 123 | 0.0 | 0.0 | 0.03 | 0.27 | 0.27 | 94 | 1013.7 |
| 20260505062505 | 45 | 123 | 0.0 | 0.0 | 0.02 | 0.26 | 0.26 | 93 | 1013.5 |
| 20260505062005 | 45 | 123 | 0.0 | 0.0 | 0.02 | 0.26 | 0.26 | 93 | 1013.5 |
| 20260505061505 | 46 | 123 | 0.0 | 0.0 | 0.02 | 0.26 | 0.26 | 93 | 1013.6 |
| 20260505061005 | 46 | 123 | 0.0 | 0.0 | 0.01 | 0.25 | 0.25 | 93 | 1013.4 |
| 20260505060504 | 46 | 123 | 0.0 | 0.0 | 0.01 | 0.25 | 0.25 | 93 | 1013.3 |
| 20260505060005 | 46 | 123 | 0.0 | 0.0 | 0.01 | 0.25 | 0.25 | 93 | 1013.3 |
| 20260505055506 | 46 | 123 | 0.0 | 0.0 | 0.01 | 0.25 | 0.25 | 93 | 1013.3 |
| 20260505055006 | 46 | 123 | 0.0 | 0.0 | 0.01 | 0.25 | 0.25 | 93 | 1013.2 |
| 20260505054505 | 46 | 123 | 0.0 | 0.0 | 0.00 | 0.24 | 0.24 | 93 | 1013.4 |
| 20260505054005 | 46 | 123 | 0.0 | 0.0 | 0.00 | 0.24 | 0.24 | 93 | 1013.4 |
| 20260505053505 | 46 | 123 | 0.0 | 0.0 | 0.00 | 0.24 | 0.24 | 93 | 1013.5 |
| 20260505053005 | 46 | 123 | 0.0 | 0.0 | 0.00 | 0.24 | 0.24 | 93 | 1013.5 |
| 20260505052505 | 46 | 123 | 0.0 | 0.0 | 0.00 | 0.24 | 0.24 | 93 | 1013.5 |
| 20260505052005 | 46 | 123 | 0.0 | 0.0 | 0.01 | 0.24 | 0.24 | 93 | 1013.5 |
| 20260505051505 | 46 | 123 | 0.0 | 0.0 | 0.01 | 0.24 | 0.24 | 93 | 1013.4 |
| 20260505051006 | 46 | 123 | 0.0 | 0.0 | 0.01 | 0.24 | 0.24 | 93 | 1013.5 |
| 20260505050505 | 46 | 123 | 0.0 | 0.0 | 0.01 | 0.24 | 0.24 | 93 | 1013.5 |